GEFSCGP_500_meanwind_084.txt.gz
Wind_Speed
19 17 16 15 15 16 16 17 17 18 18 18 18 19 20 20 20 21 22 22 23 24 24 24 24 24 24 25 25 25 24 24 24 24 25 26 26 27 28 30 32 34 35 38
18 16 15 15 15 15 16 16 17 17 17 17 18 18 18 18 18 19 21 21 22 22 22 23 23 23 23 24 24 23 23 23 22 23 23 23 24 24 24 26 28 30 32 35
16 15 14 14 14 14 15 15 16 16 17 17 17 16 16 16 17 18 19 20 20 21 22 22 23 23 23 24 24 23 22 22 21 21 21 21 21 21 21 22 23 25 28 31
15 14 13 13 13 13 13 14 15 15 15 15 14 14 14 14 16 17 18 20 21 22 22 23 23 23 23 24 23 22 21 21 20 19 19 19 18 18 18 19 20 22 24 27
14 13 13 12 11 12 12 13 13 13 12 12 12 12 13 14 15 16 18 20 21 22 23 23 23 23 23 23 23 22 20 19 19 18 17 17 16 16 16 16 18 19 21 23
13 12 11 10 9 10 10 11 11 10 10 10 10 11 12 14 15 16 18 20 21 22 22 23 23 23 23 23 23 23 21 20 19 18 17 16 15 14 14 14 15 15 17 19
12 10 9 8 8 8 8 9 9 9 8 9 10 11 12 13 14 16 18 20 21 21 22 22 23 23 23 23 24 23 22 21 20 18 17 16 14 13 12 12 12 12 13 16
11 9 8 7 6 6 6 7 7 7 7 8 8 10 12 13 15 16 18 19 20 20 21 23 23 24 24 24 24 24 23 22 21 19 18 16 14 13 12 11 10 10 10 11
10 8 7 5 4 4 4 5 5 6 6 7 8 10 11 13 15 16 18 18 19 20 21 22 23 24 24 24 24 24 24 24 22 21 20 18 16 14 13 11 10 10 10 10
8 7 6 4 3 2 2 3 4 4 5 6 8 9 11 12 14 16 17 18 20 21 22 22 23 23 24 24 24 24 24 24 23 22 21 19 18 16 14 13 11 10 8 8
7 6 5 4 2 1 0 2 3 4 6 7 8 9 10 12 14 16 17 18 19 21 22 23 23 23 24 24 24 25 25 25 24 23 22 21 20 18 16 15 12 10 8 7
6 5 4 3 2 1 2 2 3 4 6 7 8 9 10 12 14 15 17 18 19 21 22 23 23 23 24 24 24 25 25 25 24 24 23 22 21 20 19 17 14 12 10 9
6 5 5 4 3 2 2 2 2 4 5 7 7 9 10 12 14 15 16 17 19 20 21 22 23 23 23 24 24 25 25 25 25 24 24 22 21 21 21 19 17 14 13 11
6 5 4 4 3 3 2 1 2 3 4 6 7 8 10 12 13 14 15 17 18 19 20 21 22 23 23 24 24 24 25 25 25 25 25 24 23 22 22 21 19 17 15 14
6 5 5 4 3 3 2 1 2 3 4 5 7 8 10 11 12 14 15 16 17 18 20 20 21 22 23 24 24 24 24 25 25 25 25 25 25 24 23 23 22 20 17 15
6 5 4 4 3 2 2 1 1 2 4 5 6 8 9 11 12 13 14 16 17 18 19 20 21 21 22 23 24 24 25 25 25 25 25 25 25 25 25 24 23 22 20 18
5 4 4 3 3 2 1 0 1 2 4 5 6 8 9 10 11 12 14 15 16 17 18 19 20 21 21 22 23 24 24 24 24 25 25 25 25 25 25 25 24 23 22 20
5 4 4 3 3 2 1 1 2 3 4 6 7 8 9 11 12 12 13 14 15 16 17 18 18 19 20 21 22 23 23 24 24 24 25 25 25 25 25 25 25 24 24 23
5 4 4 4 3 3 3 3 4 5 6 7 8 9 10 11 12 13 13 14 14 15 16 16 17 18 19 19 20 21 22 23 23 24 24 24 24 24 25 24 24 24 23 23
6 6 6 6 6 6 6 6 6 7 8 8 9 10 10 11 12 12 13 14 14 15 15 15 16 17 17 18 19 20 21 21 22 22 23 24 23 23 24 24 24 24 23 22
9 8 8 8 8 8 8 8 8 9 9 10 10 11 11 11 12 12 13 13 14 14 15 15 15 16 17 17 18 18 19 20 20 21 21 22 23 23 23 23 23 23 23 22
11 11 11 11 12 11 11 11 11 11 11 11 12 12 12 12 13 13 13 14 14 14 15 15 16 16 16 17 17 17 18 18 19 19 20 20 21 22 22 22 22 22 22 22
14 13 13 13 13 13 13 13 13 13 13 13 14 14 14 14 14 14 14 14 15 15 15 15 16 16 16 17 17 17 17 17 18 18 18 19 19 20 21 21 21 21 21 21
16 16 16 16 15 15 15 15 15 15 16 16 16 16 16 17 17 16 16 16 16 16 16 16 16 17 17 17 17 17 17 17 17 18 18 18 18 18 19 19 19 19 20 19
18 18 18 18 18 18 18 18 18 18 19 19 19 19 19 19 19 19 19 19 19 18 18 18 18 18 18 18 18 18 18 18 18 18 18 18 17 17 17 17 18 18 18 17
21 20 20 20 20 21 21 21 21 22 22 22 22 22 22 22 22 22 22 22 22 21 21 21 21 20 20 20 19 19 19 19 19 19 18 18 17 17 17 16 16 16 16 16

GEFSCGP_500_meanwind_090.txt.gz
Wind_Speed
17 17 16 15 15 14 14 14 15 16 15 15 14 15 15 16 16 17 18 19 20 21 21 22 22 22 22 22 22 22 22 22 22 21 20 20 20 21 22 24 27 29 31 33
18 17 16 15 15 14 13 13 14 14 13 13 12 13 13 14 15 16 17 18 19 20 21 21 21 21 22 22 22 22 22 21 21 20 19 19 19 19 20 21 23 26 28 30
18 17 16 15 14 13 12 12 13 12 11 10 11 11 11 12 14 15 16 17 18 19 19 20 21 21 22 22 22 22 21 21 20 19 18 18 17 17 17 18 19 21 24 27
19 16 15 14 13 11 12 11 10 10 9 9 9 9 11 12 13 14 15 16 17 19 19 20 21 22 23 22 22 22 22 21 20 19 17 16 15 15 15 15 16 17 19 21
17 15 14 13 11 11 10 9 8 7 7 7 7 8 10 11 12 14 15 16 17 18 19 20 21 22 23 23 22 22 22 21 20 19 18 16 15 13 12 12 13 14 15 18
16 15 13 12 10 10 9 7 6 5 5 5 6 7 9 10 11 13 14 16 17 18 19 20 21 22 22 23 22 22 22 22 21 20 19 17 16 14 13 11 11 11 12 15
16 14 12 10 10 8 7 5 4 3 3 4 5 6 7 9 11 12 14 15 17 18 20 20 21 21 22 22 23 22 23 23 22 21 20 19 17 15 14 12 11 10 11 12
14 13 11 10 9 7 5 3 2 1 2 3 4 6 7 9 10 12 14 15 17 18 19 20 20 21 22 22 23 23 23 23 23 22 21 20 19 17 15 14 12 10 9 9
14 12 11 9 8 6 4 3 2 1 1 2 4 6 7 9 10 12 13 15 17 18 19 20 21 21 22 22 23 23 23 23 23 23 22 21 20 18 17 15 14 12 10 9
13 11 10 9 7 5 4 3 3 2 1 2 3 5 7 8 10 11 13 15 16 17 18 19 21 21 22 23 23 23 24 24 24 24 23 23 22 21 19 17 16 14 13 11
12 11 10 8 7 6 5 4 4 3 2 2 3 4 6 8 9 11 12 14 15 17 18 19 20 21 22 23 24 23 24 24 24 24 24 24 23 22 21 19 17 16 15 12
11 10 9 8 7 6 6 6 5 4 2 2 3 4 5 7 9 10 12 13 15 16 17 18 19 21 22 23 23 24 24 24 25 25 25 25 25 24 22 21 19 18 17 15
11 10 9 8 7 7 7 6 5 3 2 2 3 4 5 7 9 10 11 12 14 15 16 17 18 20 21 22 23 24 24 24 25 26 25 25 25 25 24 22 21 21 19 17
10 9 9 9 8 8 8 7 5 4 2 2 2 3 5 7 8 9 11 12 13 14 16 17 18 19 20 21 22 23 24 24 25 25 25 25 25 25 25 23 22 22 21 20
10 9 9 9 9 8 7 7 5 4 3 1 1 3 5 6 8 9 10 11 12 13 15 16 17 18 19 20 21 22 23 24 25 25 25 25 25 25 25 24 23 23 22 21
10 9 9 9 9 8 7 6 5 4 2 1 1 2 4 6 7 8 9 11 12 13 14 15 16 17 18 19 20 21 22 23 24 24 24 24 25 26 26 25 24 23 23 23
10 10 10 9 8 7 7 6 5 4 2 1 2 3 4 5 7 8 9 10 11 12 13 14 15 16 18 18 19 20 21 21 22 23 23 23 24 25 25 25 24 24 24 23
10 10 10 9 8 8 7 6 4 4 3 2 3 3 5 6 7 8 9 10 11 12 13 14 15 16 17 18 18 19 20 20 21 22 22 23 23 24 24 24 24 24 23 23
11 10 10 9 9 8 7 6 5 5 4 4 4 5 6 6 7 8 9 11 12 12 13 14 14 15 16 17 18 18 19 19 20 21 21 22 22 23 23 23 23 23 23 23
11 11 10 10 9 9 8 7 7 7 6 6 7 7 7 8 9 10 10 11 12 12 13 14 14 15 16 17 17 18 18 19 19 20 20 21 21 22 22 22 22 22 22 22
12 12 11 11 10 10 9 9 9 9 8 9 9 9 9 10 10 11 11 12 13 13 14 14 15 16 16 17 17 18 18 18 19 19 20 20 20 21 21 21 21 21 21 21
13 13 13 12 12 11 10 11 11 11 11 11 11 11 11 11 12 12 13 13 14 14 15 15 16 17 17 17 17 18 18 19 19 19 19 20 20 20 19 20 20 20 20 19
15 15 15 14 14 13 13 13 13 13 13 13 13 13 13 13 14 14 14 15 15 16 16 17 17 17 18 18 18 18 19 19 19 20 19 19 19 19 19 18 19 19 19 19
17 17 16 16 16 16 15 15 15 15 15 15 15 16 16 16 16 17 17 17 17 18 18 18 18 19 19 19 19 19 19 20 20 20 20 20 19 19 19 18 18 18 18 18
19 18 18 18 18 18 18 18 17 18 18 18 18 18 18 18 19 19 19 19 19 19 19 20 20 20 21 21 21 21 21 21 21 21 21 21 20 20 19 19 18 17 17 17
21 21 21 20 20 20 20 20 20 20 20 20 20 20 20 20 21 21 21 21 21 21 21 22 22 22 23 23 23 23 23 22 22 22 22 22 21 21 20 19 19 18 18 17

GEFSCGP_500_meanwind_096.txt.gz
Wind_Speed
19 18 16 14 14 15 14 12 13 18 16 16 15 15 16 15 15 17 18 19 20 21 21 21 22 22 22 23 23 22 22 21 21 21 20 20 19 19 19 19 19 20 22 24
19 18 15 15 16 15 13 13 14 17 15 13 13 13 13 14 15 15 16 17 18 19 20 21 21 22 22 23 23 22 22 21 21 20 20 19 18 17 16 16 16 17 18 20
17 15 15 16 14 14 14 15 15 15 14 13 11 11 11 12 14 14 15 16 17 18 19 20 21 22 22 22 22 22 22 22 21 21 20 19 18 17 16 15 14 15 16 17
18 17 16 16 14 14 15 14 13 12 12 10 9 10 11 11 12 13 14 15 16 17 18 19 20 21 22 22 22 22 22 22 22 21 20 19 19 17 16 15 14 13 14 15
19 18 17 16 15 14 14 12 10 10 9 7 7 8 11 11 12 13 14 15 16 17 18 19 20 20 21 22 22 22 22 22 22 21 21 20 19 18 17 16 15 13 13 13
19 18 17 16 14 13 12 10 8 6 5 4 6 7 10 11 12 13 13 14 15 16 17 18 19 20 21 22 23 22 22 23 23 22 21 20 20 18 17 16 15 14 13 12
17 16 16 14 13 12 11 9 5 3 5 7 7 8 9 10 11 12 13 14 15 15 16 17 19 20 21 22 23 23 23 23 23 23 22 21 20 19 18 17 16 15 14 13
12 13 14 13 13 11 10 8 7 6 4 8 8 8 7 8 9 10 11 12 13 14 15 17 18 20 21 22 23 23 23 23 24 24 23 23 22 21 19 18 17 17 15 14
13 13 12 11 11 11 9 9 9 8 7 5 7 6 4 7 7 9 10 11 12 13 15 16 17 19 20 21 23 23 24 24 24 24 24 24 23 22 21 20 19 18 17 15
13 13 11 11 11 10 10 9 9 8 7 5 5 9 5 5 7 8 9 10 11 13 14 15 17 18 19 21 22 23 24 24 24 25 25 25 25 24 22 22 21 20 19 17
12 9 9 10 10 9 9 9 9 8 7 7 6 7 5 5 6 7 8 10 11 12 14 15 16 17 19 20 21 23 24 24 25 25 26 26 26 25 24 23 22 21 20 19
14 10 7 8 7 8 9 9 10 9 8 7 6 5 3 4 5 7 8 9 10 12 13 14 15 17 18 19 20 22 23 24 24 25 26 26 26 25 25 24 23 22 21 21
15 12 7 8 8 9 10 10 10 9 8 7 6 4 3 4 5 6 7 8 10 11 12 14 15 16 17 19 20 21 22 23 24 25 25 26 25 26 25 25 25 24 23 22
14 13 11 11 11 10 10 10 10 10 9 7 7 5 4 4 5 6 7 8 9 10 12 13 14 16 17 18 19 20 21 22 23 24 25 26 25 25 25 25 25 24 24 23
12 12 12 12 12 12 11 10 10 10 9 8 7 6 5 5 6 6 7 8 9 10 12 13 14 15 16 17 18 19 20 21 22 23 24 25 25 25 25 25 25 25 24 24
11 11 12 11 11 11 11 10 10 10 10 9 8 7 6 6 6 6 7 8 9 11 12 13 14 14 15 16 17 18 19 20 21 22 23 24 24 25 25 24 24 25 24 24
11 11 11 10 11 11 11 10 11 10 10 9 9 8 7 7 7 7 8 9 10 11 12 13 13 14 15 16 17 18 19 20 21 21 22 23 23 24 24 24 24 25 25 24
11 11 11 11 11 11 10 9 10 10 10 10 9 9 9 8 8 8 9 10 11 11 12 13 13 14 15 16 17 18 18 19 20 21 22 22 23 23 23 23 24 24 24 24
12 12 12 12 11 10 10 10 11 11 11 11 10 10 10 10 10 10 10 11 12 12 13 13 14 15 15 16 17 18 18 19 19 20 21 21 22 22 22 23 23 23 23 23
12 13 13 12 12 12 11 11 12 12 12 12 12 12 12 12 12 11 12 13 13 13 14 14 15 16 16 17 17 18 18 19 19 20 21 21 21 22 22 22 22 22 22 22
14 14 14 14 15 14 12 12 14 14 12 13 13 13 13 14 14 13 14 14 14 15 15 16 16 17 17 18 18 18 19 19 19 20 20 21 21 21 21 21 21 22 21 21
16 16 16 16 17 16 14 14 16 16 15 15 15 15 15 15 15 15 15 15 16 16 17 17 18 18 18 19 19 19 19 20 20 21 21 21 21 21 21 21 21 21 21 21
18 18 18 19 18 17 17 17 17 18 17 17 17 17 17 17 17 17 17 17 18 18 19 19 19 20 20 20 20 20 21 21 21 21 21 22 22 22 22 21 21 21 20 20
21 21 21 21 20 20 20 20 19 20 20 19 19 19 19 19 19 19 19 19 20 20 20 20 21 21 21 21 22 22 22 22 23 23 23 23 23 22 22 22 21 21 21 20
24 23 23 23 23 23 22 22 22 22 21 21 21 21 21 21 21 21 21 21 22 22 22 22 23 23 23 23 23 24 24 24 24 25 25 24 24 24 23 23 22 22 21 21
25 26 26 25 24 25 24 23 23 24 24 24 23 23 23 23 23 23 23 23 23 24 24 25 25 25 25 25 25 26 26 27 27 27 27 26 26 25 25 24 24 23 23 22

GEFSCGP_500_meanwind_102.txt.gz
Wind_Speed
24 23 20 17 16 15 14 13 11 10 8 8 6 5 6 7 8 9 10 12 14 15 17 18 19 20 21 21 21 21 21 20 20 19 19 18 18 18 17 17 16 15 15 16
24 21 19 18 16 15 14 13 11 9 8 7 6 5 5 5 6 8 10 12 14 15 17 18 19 20 21 21 22 22 21 20 20 20 20 19 19 18 18 17 15 15 14 14
21 19 19 18 16 14 13 11 9 8 7 6 5 4 3 4 5 7 9 11 13 15 16 17 18 19 20 21 22 22 21 20 21 21 21 20 19 19 18 17 15 14 13 12
22 20 19 18 15 13 11 9 8 7 7 6 4 3 2 3 4 6 9 11 12 13 15 16 17 18 19 20 21 22 22 21 21 21 21 21 21 20 18 17 16 14 13 12
19 19 18 16 14 12 10 8 7 8 6 5 4 2 1 2 4 6 8 9 11 13 14 15 16 17 19 20 21 22 22 22 22 22 21 21 21 21 19 18 17 15 13 12
18 18 17 13 11 10 8 8 8 8 6 5 4 2 1 2 4 5 7 9 10 12 13 14 15 16 18 19 21 22 23 23 23 23 22 22 22 21 20 19 18 17 15 12
17 16 14 12 11 9 9 8 9 8 7 6 5 3 1 2 3 5 7 8 9 10 12 13 14 15 17 18 20 21 23 23 24 24 23 22 22 22 21 20 19 18 16 13
16 14 13 11 11 9 8 8 9 9 9 7 6 3 2 1 2 4 6 7 8 9 11 12 13 15 16 18 19 21 22 23 24 24 24 23 22 22 22 21 20 19 17 15
16 14 12 10 10 10 9 9 9 9 9 8 6 5 3 2 1 3 4 6 7 8 9 11 12 14 15 17 18 20 21 23 24 24 24 24 23 22 22 22 21 20 19 17
14 13 11 10 9 9 9 9 9 9 9 8 7 6 5 4 1 1 2 4 5 7 8 10 12 13 15 16 18 19 21 22 23 24 24 24 24 24 23 22 22 21 20 19
12 12 11 11 10 9 9 9 9 9 10 9 7 5 5 3 2 1 1 3 4 6 8 10 11 12 14 16 17 19 20 21 22 23 24 24 24 24 24 23 22 21 21 20
11 12 11 10 9 10 9 10 10 10 10 9 8 6 6 4 3 1 1 2 4 6 7 9 10 12 13 15 16 18 19 20 21 22 23 24 24 24 24 23 23 22 21 20
10 10 10 10 9 9 10 10 10 10 10 9 8 7 6 5 3 2 2 3 4 5 7 8 10 11 13 14 15 17 18 20 21 21 22 23 24 24 23 23 23 22 21 20
10 10 9 10 10 10 10 10 10 10 10 9 8 7 6 5 4 4 3 3 4 5 7 8 9 11 12 13 15 16 17 19 20 21 22 23 23 24 23 23 23 22 21 20
10 10 10 10 10 11 11 10 10 10 10 10 9 7 7 6 5 4 4 4 5 6 7 8 10 11 12 13 14 16 17 18 19 20 21 22 22 23 23 23 23 22 21 21
11 12 12 12 12 12 11 10 10 11 11 10 9 8 7 6 5 5 5 5 6 7 8 9 10 11 12 13 14 15 17 18 19 20 20 21 21 22 23 23 23 22 21 21
13 13 13 13 14 13 11 10 11 11 11 11 10 9 8 7 6 6 6 6 7 8 8 9 10 11 12 13 14 15 17 18 19 19 20 20 21 21 22 22 22 22 21 21
12 13 13 14 14 14 11 12 12 12 11 11 11 10 9 8 8 7 8 8 8 9 9 10 11 12 13 14 15 16 17 18 19 19 20 20 21 21 21 21 21 21 21 20
13 13 13 14 14 13 12 13 13 12 12 12 11 11 10 10 9 9 9 9 10 10 11 11 12 13 14 15 16 17 17 18 19 19 20 20 20 21 21 21 21 21 21 20
14 14 14 14 14 13 13 13 13 13 12 12 12 12 11 11 11 11 11 11 12 12 12 13 13 14 15 16 16 17 18 19 19 20 20 20 21 21 21 21 21 21 20 20
15 15 15 15 14 13 13 14 13 13 12 13 13 13 12 12 12 13 13 13 13 14 14 14 15 15 16 17 18 18 19 19 20 20 21 21 21 21 21 21 21 20 20 19
17 17 17 17 15 13 15 14 14 14 14 14 14 14 14 14 14 14 14 15 15 15 15 16 16 17 17 18 19 20 20 20 21 21 21 22 22 21 21 21 21 21 20 20
19 19 19 19 17 16 17 16 16 16 16 16 16 16 16 16 16 16 16 16 17 17 17 17 17 18 19 19 20 21 21 21 22 22 22 23 23 23 22 22 22 22 21 21
21 21 21 20 19 19 19 19 18 18 18 18 18 17 17 18 18 18 18 18 18 19 19 19 19 20 20 21 21 22 22 23 23 23 24 24 24 24 24 24 23 23 23 22
22 23 23 22 21 22 22 21 21 20 20 20 20 19 19 20 20 19 19 20 20 20 20 20 21 21 22 22 23 23 24 24 24 25 25 26 26 26 26 26 25 25 24 24
24 25 26 24 24 25 25 24 23 23 22 22 22 22 21 21 21 21 21 21 21 21 22 22 23 23 24 24 24 25 25 25 26 26 27 27 27 27 27 27 27 27 26 26

GEFSCGP_500_meanwind_108.txt.gz
Wind_Speed
26 23 20 18 18 16 14 12 10 10 10 10 9 8 8 7 6 6 5 4 4 5 8 10 11 13 15 16 18 19 20 21 20 20 20 20 19 19 19 18 17 16 15 14
23 21 19 19 17 15 13 12 10 10 10 10 9 8 8 7 6 5 4 4 4 5 7 9 11 13 15 16 17 19 20 21 22 21 21 20 20 20 19 18 17 16 15 14
20 18 19 17 16 15 13 12 11 10 11 10 9 8 8 7 6 5 4 3 3 4 7 9 11 13 14 16 17 19 20 21 22 22 21 21 21 20 20 19 17 16 15 13
19 18 18 17 15 14 13 13 12 11 11 11 9 9 8 7 6 5 4 3 3 4 6 8 10 12 14 16 17 19 20 21 22 22 22 22 22 22 21 20 18 16 15 13
17 17 17 16 14 14 13 13 12 11 11 10 10 9 8 7 6 5 4 3 2 3 5 7 9 11 13 15 17 19 20 21 22 22 23 22 22 22 22 21 19 17 15 13
17 17 17 16 15 14 13 13 12 11 10 10 9 8 8 7 6 5 4 2 2 3 4 6 9 11 13 15 16 18 20 21 22 23 23 23 23 23 22 21 20 18 16 14
16 16 15 15 14 13 13 12 11 11 10 9 8 8 8 8 6 5 4 2 1 2 4 6 8 10 12 14 16 17 19 21 22 23 23 23 23 23 23 22 21 19 18 15
15 15 14 14 14 13 13 12 11 10 9 8 9 8 8 8 7 6 4 3 2 2 4 6 8 10 11 13 15 17 19 20 22 23 24 24 23 23 23 23 21 20 19 17
14 13 14 14 13 12 12 11 10 11 10 9 8 8 8 8 7 6 5 4 2 2 3 5 7 9 11 13 14 16 18 20 21 22 23 24 24 23 23 22 22 21 20 18
12 12 11 12 12 12 11 10 11 11 11 10 8 8 9 9 8 7 6 4 3 2 3 5 6 8 10 12 14 16 18 19 21 21 22 23 24 24 24 23 22 21 20 19
10 11 11 11 10 10 10 10 11 11 11 10 9 8 9 9 8 7 6 5 4 3 3 5 6 8 9 11 13 15 17 19 20 21 22 23 24 24 24 24 23 22 20 19
8 9 11 10 10 10 10 11 11 11 10 10 9 8 10 10 9 8 7 6 5 4 4 5 6 8 9 11 13 15 16 18 19 20 21 22 23 23 24 24 24 23 21 20
7 8 10 10 10 10 11 11 12 11 11 11 10 8 10 10 10 9 8 7 6 5 5 6 7 8 9 11 12 14 16 17 18 20 21 21 22 23 23 23 23 22 22 21
6 7 9 10 11 11 12 12 12 13 13 11 10 10 11 11 11 10 9 8 7 6 6 7 7 8 9 11 12 13 15 16 17 19 20 21 21 22 22 22 22 22 21 21
8 9 10 11 12 12 12 13 13 13 12 12 11 11 12 12 11 11 10 9 8 8 7 7 8 8 9 11 12 13 14 16 17 18 19 20 21 21 21 21 21 21 21 20
10 10 11 11 13 13 13 13 13 12 12 12 12 12 13 13 12 11 11 10 9 9 8 8 8 9 9 10 12 13 14 15 16 17 18 19 20 21 21 21 20 20 20 20
12 13 13 13 14 14 13 13 14 13 12 12 12 12 13 13 13 12 12 11 10 10 9 9 9 9 10 11 12 13 14 15 16 17 18 18 19 20 20 20 20 20 20 20
13 14 14 14 14 15 13 14 14 13 13 13 13 13 14 14 14 13 13 12 11 11 11 10 10 10 10 11 12 13 14 15 16 17 17 18 19 19 19 19 19 19 19 19
15 16 16 16 16 14 13 14 15 14 13 14 14 14 14 15 15 14 14 13 13 12 12 12 12 12 12 12 13 13 14 15 16 17 17 18 18 19 19 19 18 18 18 18
16 17 17 17 16 15 13 15 15 15 14 15 15 15 15 16 16 16 15 15 14 14 14 13 13 13 13 13 13 14 15 16 17 17 18 18 18 19 19 18 18 18 18 18
18 18 19 18 17 15 14 15 16 16 15 16 16 16 16 17 17 17 17 16 16 16 15 15 15 15 14 14 15 15 16 17 17 18 18 18 19 19 19 19 19 18 19 18
19 19 20 20 19 17 16 17 17 17 17 17 18 18 18 18 18 18 18 18 17 17 17 16 16 16 16 16 16 16 17 17 18 18 18 19 19 19 19 19 19 19 19 19
21 21 21 21 20 19 19 20 20 20 20 20 20 20 20 20 20 20 20 19 19 19 18 18 18 18 18 18 18 18 18 18 19 19 19 20 20 20 20 20 20 20 20 19
24 24 24 23 21 22 22 22 22 23 23 22 22 22 22 22 22 22 22 21 21 21 20 20 20 20 20 20 19 20 20 20 20 20 20 21 21 21 21 21 21 21 21 20
26 27 27 26 25 25 25 25 25 25 25 25 24 24 24 24 24 24 24 24 23 23 22 22 22 22 22 22 21 21 22 22 22 22 22 22 22 22 22 22 22 22 22 22
28 30 30 29 29 30 28 28 29 28 27 27 27 26 25 25 25 25 25 25 25 25 24 24 24 24 24 23 23 23 23 23 23 23 23 23 23 23 23 24 24 24 24 24

GEFSCGP_500_meanwind_114.txt.gz
Wind_Speed
19 19 18 18 18 18 16 14 13 13 12 11 10 9 9 8 7 6 5 4 4 4 4 5 6 7 9 10 11 13 14 15 16 17 18 18 18 17 17 17 16 15 14 13
18 18 18 19 18 17 15 14 13 12 12 11 10 10 9 8 7 6 5 5 4 4 4 4 5 7 8 10 11 12 14 15 16 17 18 18 18 18 17 17 17 16 14 13
16 17 18 18 17 16 15 15 14 13 11 10 10 10 9 8 7 7 6 5 5 4 4 4 5 6 8 9 11 12 14 15 16 17 18 18 19 18 18 18 17 16 14 12
17 17 17 17 16 15 15 14 13 12 11 9 9 9 9 8 7 7 6 6 5 4 4 4 4 6 7 9 10 12 14 15 16 17 18 19 19 19 19 19 18 16 14 12
15 16 16 16 16 15 14 13 12 10 10 9 9 9 8 8 7 7 7 6 5 4 4 3 4 5 7 8 10 11 13 15 17 18 18 19 19 20 20 19 18 17 14 12
15 16 16 16 15 14 13 12 10 9 9 9 9 9 9 8 8 8 7 7 5 5 4 4 4 5 6 8 9 11 13 15 17 18 18 19 20 20 20 19 19 17 15 13
14 15 15 14 13 13 12 11 9 9 9 10 9 8 8 9 9 8 8 7 6 5 5 4 4 5 6 8 9 11 13 15 16 17 18 19 20 20 20 19 19 18 16 14
13 13 13 13 12 11 11 10 9 9 9 9 9 9 9 9 9 9 9 8 7 6 5 4 4 5 6 8 9 11 12 14 16 17 18 19 20 20 20 19 19 18 17 15
12 12 12 12 11 11 10 10 9 9 8 8 9 9 9 9 10 10 10 9 8 7 6 5 5 5 6 8 9 10 12 13 15 16 18 18 19 20 20 19 18 18 18 16
10 10 10 10 10 10 9 8 8 8 8 8 9 9 10 10 10 11 11 10 9 8 7 6 6 6 6 7 8 10 11 13 14 16 17 18 19 19 19 19 19 19 18 17
8 8 8 8 9 9 9 9 8 8 8 8 9 10 11 11 11 11 11 11 10 9 8 7 6 6 6 7 8 9 10 12 13 15 16 17 18 19 19 19 19 18 18 17
7 7 7 7 8 9 9 9 8 9 9 9 9 10 11 11 11 11 11 11 10 9 8 7 7 6 7 7 8 9 10 11 12 14 15 16 17 18 19 19 19 18 17 17
5 6 7 7 8 8 9 9 9 9 10 10 10 10 11 12 12 12 12 12 11 10 9 8 8 7 7 7 8 8 9 10 12 13 14 15 16 17 18 19 18 18 17 16
4 6 7 8 9 9 9 10 10 10 10 10 10 10 11 12 13 13 13 13 12 11 10 9 8 8 7 7 8 8 9 10 11 12 14 15 16 17 18 18 18 18 17 16
5 6 8 9 9 10 10 11 11 11 11 11 11 11 12 13 14 14 14 14 13 12 11 10 9 9 9 8 8 8 9 10 11 12 13 14 15 16 17 18 18 17 17 16
7 8 9 10 11 11 11 12 13 13 13 13 13 12 13 14 14 14 15 14 14 13 12 12 11 10 10 9 9 9 9 10 11 12 13 14 15 15 16 17 17 17 16 16
9 10 11 12 13 13 13 14 14 15 15 15 14 13 14 15 15 15 15 15 15 14 13 13 12 11 11 11 10 10 10 10 11 12 12 13 14 15 16 16 16 16 16 16
11 12 13 14 15 16 15 15 16 16 16 16 15 15 15 15 15 15 16 16 15 15 15 14 13 13 12 12 12 11 11 11 12 12 13 13 14 15 15 16 16 16 16 15
14 14 15 16 16 16 16 16 16 17 17 17 17 16 16 16 16 16 16 16 16 16 16 15 15 15 14 13 13 13 13 13 13 13 13 14 14 15 15 15 15 15 15 15
16 17 17 17 18 17 16 16 17 18 18 18 18 17 17 17 17 17 17 17 17 17 17 17 17 16 16 15 15 14 14 14 14 14 14 14 15 15 15 16 15 15 15 15
19 19 19 19 20 19 18 18 18 19 19 19 19 19 18 18 18 18 18 19 19 19 19 18 18 18 17 17 16 16 15 15 15 15 15 16 16 16 16 16 16 15 15 15
21 22 22 22 22 21 21 21 21 21 21 20 20 20 20 20 20 20 20 20 20 20 20 20 20 20 19 18 18 18 17 17 17 17 17 17 17 17 17 17 17 16 16 16
24 24 24 24 24 24 24 24 24 24 23 23 23 22 22 22 22 21 21 22 22 22 22 22 22 22 21 20 20 19 19 19 19 19 18 18 18 18 18 18 17 17 17 17
27 27 28 27 26 27 27 27 27 27 26 26 25 25 25 24 24 24 23 23 23 24 24 24 24 23 23 22 22 22 22 21 21 21 20 20 20 19 19 19 19 19 19 19
30 30 31 31 30 31 31 31 31 30 29 29 28 27 27 27 26 26 26 25 25 25 26 26 26 25 25 25 24 24 24 24 23 23 22 22 21 21 21 20 20 20 20 20
32 33 34 34 33 35 35 35 34 33 32 32 31 30 30 29 29 28 28 28 28 28 28 28 28 28 28 27 27 26 26 25 25 25 24 24 23 23 22 22 22 22 22 22

GEFSCGP_500_meanwind_120.txt.gz
Wind_Speed
16 17 17 16 14 15 15 14 12 11 8 8 9 9 9 8 7 7 7 7 6 5 4 4 5 7 8 10 11 13 14 15 17 18 19 19 20 20 21 21 20 19 18 17
14 14 14 14 15 15 14 14 13 11 9 8 9 9 8 7 6 7 7 7 6 5 4 5 5 6 8 9 10 12 14 15 17 18 19 19 20 20 21 21 20 19 18 17
12 12 14 14 15 15 15 14 12 9 8 8 9 9 7 7 6 7 7 7 7 6 5 5 6 6 7 9 10 12 14 16 17 19 19 20 20 21 21 21 20 19 18 16
12 13 14 15 15 14 14 12 10 8 7 7 7 7 7 7 6 7 7 7 7 7 6 6 6 7 7 8 10 12 14 16 17 18 19 19 20 21 21 21 20 19 18 17
11 12 13 13 13 13 12 11 9 8 8 7 7 6 9 9 7 6 7 8 8 7 7 7 7 7 8 9 10 11 13 15 17 18 19 19 20 21 21 21 21 19 18 17
9 9 10 11 11 11 10 8 6 5 6 6 6 6 8 9 7 7 8 8 8 8 8 7 7 7 8 9 10 11 13 15 16 18 19 19 20 20 21 21 21 20 19 17
6 7 8 9 9 9 8 7 4 3 3 4 6 7 9 9 9 9 9 8 8 8 8 8 8 8 8 9 10 11 12 14 16 17 18 19 20 20 20 21 21 20 19 17
3 3 5 6 7 8 8 7 5 2 1 3 6 8 11 10 9 9 9 9 9 8 9 9 8 8 9 9 10 11 12 13 15 16 17 19 20 20 20 21 21 21 19 18
4 2 4 5 6 7 7 6 5 3 1 1 5 10 12 9 9 9 9 9 9 9 9 9 9 9 9 9 10 11 12 13 14 15 17 18 19 20 20 20 21 21 20 19
5 2 3 4 5 5 5 5 5 5 4 3 4 9 13 11 9 10 10 10 10 10 10 10 10 10 9 9 10 11 11 12 13 14 16 17 18 19 20 20 20 20 20 19
4 2 2 3 4 4 5 5 5 5 5 5 7 10 13 14 12 11 11 10 10 11 11 11 11 10 10 10 10 10 11 12 13 14 15 16 17 18 19 20 20 20 20 19
3 3 2 3 4 5 6 6 7 7 7 8 10 12 13 14 13 12 12 12 11 11 12 12 11 11 10 10 10 10 11 11 12 13 14 15 16 18 18 19 20 20 19 19
3 3 3 3 4 5 7 7 7 8 8 8 9 12 13 14 13 13 13 13 13 12 12 12 12 12 11 11 11 11 11 11 12 13 14 14 15 17 18 18 19 19 19 19
3 3 4 5 6 7 8 8 9 10 10 10 11 12 14 15 15 14 15 15 15 14 13 13 13 13 12 12 12 11 11 12 12 13 14 14 15 16 17 18 18 18 18 18
5 6 6 8 9 11 11 11 11 12 12 13 12 14 15 15 16 16 16 16 16 15 15 15 14 14 14 13 13 12 12 12 13 13 14 14 15 15 16 17 17 17 18 18
7 8 9 10 11 12 13 13 12 13 14 14 15 15 15 16 17 17 17 16 17 17 16 16 15 15 15 14 14 14 13 13 13 13 14 14 15 15 16 16 16 16 17 17
9 10 11 11 13 14 13 13 14 15 15 16 16 15 15 16 17 17 17 17 17 18 17 17 17 16 16 16 15 15 15 14 14 14 14 15 15 15 15 15 16 16 16 16
11 12 13 13 14 15 15 16 16 17 17 17 17 17 17 17 17 17 17 17 17 18 18 18 18 18 18 17 17 16 16 16 15 15 15 15 15 15 16 16 15 16 16 16
13 15 15 16 16 17 16 17 17 18 18 19 19 18 18 18 19 18 18 18 18 18 19 19 19 19 19 19 18 18 17 17 17 16 16 16 16 16 16 16 16 16 16 16
15 16 17 18 18 19 18 19 19 20 21 20 20 20 20 20 20 20 19 19 19 20 20 20 20 20 20 20 20 20 19 19 18 18 18 17 17 17 17 16 16 16 16 16
18 19 19 20 21 21 21 21 21 23 23 21 22 22 22 22 23 22 21 21 21 21 21 22 22 22 22 22 22 22 21 21 20 20 19 19 19 18 18 17 17 17 17 17
22 22 22 23 24 24 24 24 24 25 25 25 25 25 25 25 25 24 24 24 24 23 23 23 23 24 24 24 24 23 23 22 22 21 21 21 20 19 19 19 18 18 18 18
25 26 27 27 28 28 28 28 28 29 29 29 29 28 27 27 27 27 26 26 26 26 25 25 25 25 25 25 26 25 25 25 24 23 23 22 22 21 21 20 20 20 19 19
28 29 31 31 31 31 32 33 33 33 32 32 32 31 30 30 29 29 29 29 28 28 28 27 27 27 27 27 27 27 27 27 26 25 25 24 24 23 23 22 22 22 21 21
32 33 34 35 35 36 35 35 35 36 36 36 35 34 34 33 32 32 32 31 31 31 30 30 30 29 29 29 29 29 29 28 28 28 27 26 26 25 25 24 24 24 23 23
34 36 37 38 38 40 40 39 39 39 39 38 37 37 36 36 35 35 34 34 34 34 33 32 32 32 31 31 31 31 31 30 30 30 29 29 28 27 27 26 26 25 25 24

GEFSCGP_500_meanwind_126.txt.gz
Wind_Speed
14 14 14 14 14 14 13 12 11 9 9 8 7 6 6 6 6 6 6 5 4 4 3 3 1 2 3 5 7 8 10 12 13 15 16 17 18 19 19 19 19 19 18 18
13 13 14 14 13 13 12 10 9 8 8 7 7 6 5 5 5 5 6 6 5 4 4 3 2 2 3 5 6 8 10 12 13 14 16 17 18 18 19 19 19 19 18 17
12 12 12 12 11 10 10 9 7 6 6 6 6 5 4 4 5 5 6 6 6 5 4 3 2 2 4 5 6 8 9 11 13 14 16 17 18 18 19 19 19 19 18 17
13 12 11 11 10 9 8 7 6 5 5 4 4 4 4 4 5 5 5 5 5 5 4 3 3 3 4 5 6 7 9 11 12 14 15 16 17 18 19 19 19 19 18 17
11 11 10 10 9 9 7 7 6 5 4 4 4 4 3 4 3 3 4 4 4 5 5 4 3 4 5 6 6 7 9 10 12 13 15 16 17 18 19 19 19 19 18 17
11 10 9 9 9 9 7 6 6 5 5 4 3 4 3 3 3 2 3 4 4 5 4 4 4 4 5 6 7 8 9 10 11 13 15 16 16 17 18 19 19 19 19 17
11 10 10 10 10 9 7 6 6 5 5 4 3 3 3 2 2 2 3 4 4 4 4 4 5 5 6 7 7 8 9 9 11 13 14 15 16 17 18 18 19 19 19 18
10 11 10 10 9 8 7 7 6 6 5 4 3 2 2 1 1 1 2 3 3 3 4 5 6 6 7 7 7 8 8 9 10 12 13 14 15 16 17 18 18 19 19 18
10 11 11 10 9 8 7 6 5 5 4 3 3 2 2 1 1 1 2 3 3 4 5 6 7 7 8 8 8 8 8 9 10 11 13 14 14 15 16 17 18 18 18 18
10 10 10 9 8 6 6 4 4 4 4 3 2 1 2 2 3 3 3 4 4 5 5 6 7 8 8 8 8 8 9 9 10 11 12 13 13 14 15 16 17 18 18 17
8 8 8 7 6 5 4 3 3 3 3 3 3 3 4 4 4 4 4 5 6 6 7 7 8 8 8 9 8 9 9 10 10 11 11 12 13 13 14 15 16 17 17 17
6 6 6 5 5 4 3 2 2 3 4 5 5 4 6 6 5 5 5 6 6 7 8 9 9 9 9 9 9 9 10 10 10 11 11 12 12 13 13 14 15 16 16 16
4 3 3 3 2 2 2 3 4 5 6 6 7 6 7 7 7 7 7 7 8 9 9 10 10 10 10 11 11 11 11 11 11 11 11 11 11 12 13 13 14 14 15 16
1 1 0 0 1 2 3 4 5 6 7 8 8 7 8 9 9 9 9 10 10 11 11 11 11 11 11 12 12 12 12 12 12 11 11 11 11 12 12 12 13 13 14 15
1 2 2 3 3 3 4 5 6 7 8 9 9 10 10 11 11 11 11 11 12 12 12 13 13 13 13 13 13 13 13 13 13 12 12 12 12 12 12 12 12 13 13 13
3 4 4 5 6 6 7 8 8 9 10 10 10 10 11 12 13 12 12 13 13 13 13 14 14 15 15 15 14 14 14 14 14 13 13 13 13 13 12 12 12 12 12 12
6 6 7 7 8 9 9 9 10 11 11 12 12 12 12 13 14 14 14 14 14 14 14 15 16 16 16 16 16 16 15 15 15 15 15 14 14 14 13 13 13 12 12 12
9 9 9 10 10 11 10 11 12 13 14 14 14 14 14 14 15 15 15 15 15 15 15 16 16 17 17 17 17 17 17 17 17 16 16 16 15 15 15 14 14 13 13 12
11 12 12 12 12 11 12 13 14 15 16 16 16 16 16 16 16 16 17 17 17 17 17 17 17 17 18 18 19 19 19 18 18 18 17 17 17 17 16 15 15 14 14 13
14 14 15 15 16 15 15 15 16 17 17 17 18 18 19 19 19 19 19 19 19 19 19 19 19 19 19 19 20 20 20 20 20 20 19 19 19 19 18 17 16 16 15 15
16 17 17 18 18 18 18 18 19 19 20 20 20 21 21 21 22 22 21 21 21 21 21 22 22 22 22 22 22 22 22 22 22 22 22 21 21 21 20 19 18 18 17 16
19 20 20 21 22 22 22 22 22 23 23 23 23 24 24 24 24 24 24 24 24 24 24 25 25 24 24 25 24 24 24 24 25 25 24 24 23 23 22 21 21 20 19 19
23 23 24 24 24 25 25 26 26 27 27 27 27 27 27 27 27 27 27 27 27 27 27 28 28 27 27 27 27 26 26 26 27 26 26 26 26 25 25 24 23 22 22 21
25 26 27 27 27 28 29 29 30 31 31 31 31 31 31 31 31 31 31 31 31 31 31 31 31 30 30 29 29 29 29 29 29 29 28 28 28 27 27 26 25 25 24 23
26 28 30 30 31 31 32 33 33 34 35 35 35 36 36 36 36 35 35 35 35 35 35 35 34 33 33 32 32 32 31 31 31 31 31 31 30 30 29 29 28 27 27 26
30 32 34 34 34 35 35 36 37 38 38 39 39 39 39 40 40 39 39 38 39 39 38 38 37 37 36 36 35 35 34 34 34 34 34 33 33 32 32 31 30 30 29 28

GEFSCGP_500_meanwind_132.txt.gz
Wind_Speed
13 15 15 15 14 13 11 11 11 11 10 10 9 8 8 7 7 9 10 10 9 9 8 7 6 6 4 4 4 5 6 7 8 10 12 14 15 17 17 18 18 18 18 18
13 14 14 14 13 11 10 10 10 9 10 9 8 8 7 7 7 8 9 10 10 9 8 7 6 5 4 4 5 5 6 7 8 10 12 14 15 17 18 18 18 18 18 18
11 12 13 12 12 11 10 9 9 9 9 8 8 7 7 7 7 8 9 9 9 9 8 8 7 6 5 5 5 5 6 7 8 10 11 13 15 17 17 17 18 19 19 18
11 11 12 12 11 11 11 10 9 8 9 9 8 6 6 5 6 8 9 10 9 9 9 8 7 6 5 5 6 6 6 7 8 10 11 13 15 16 17 17 18 18 18 18
11 11 12 12 11 11 11 10 9 8 8 8 7 6 5 5 7 7 8 9 9 8 8 8 7 7 6 6 6 6 6 7 8 9 11 13 14 16 17 17 17 18 18 19
11 11 12 12 12 11 10 10 9 8 8 7 6 6 5 5 6 6 7 8 8 8 8 8 8 7 7 6 6 7 7 7 8 9 11 13 14 15 16 17 17 17 18 19
11 12 11 12 12 11 10 10 9 9 7 6 6 5 4 4 5 5 6 7 7 8 8 8 7 7 8 7 7 7 7 8 8 9 11 12 14 15 16 16 16 17 18 18
11 12 12 12 11 10 9 9 8 7 6 6 5 4 4 4 4 5 5 6 6 6 7 7 8 8 8 8 8 8 8 8 9 10 11 12 13 14 15 15 16 16 17 18
11 11 11 10 10 9 9 8 6 6 5 5 5 4 4 3 3 4 5 5 6 6 7 8 8 8 8 8 8 8 9 9 9 10 11 12 13 14 14 15 15 16 16 17
10 10 9 8 8 8 7 6 5 4 4 4 4 3 3 3 3 4 5 5 6 6 7 8 8 8 8 9 9 9 9 10 10 11 11 12 12 13 14 14 15 15 16 16
8 7 7 7 6 6 5 5 4 3 3 3 3 2 2 2 3 3 4 6 6 7 8 9 9 10 10 10 10 10 10 11 11 11 11 12 12 13 13 14 14 15 15 15
6 5 5 5 5 5 4 3 3 3 3 3 3 2 3 3 4 4 5 6 8 8 9 10 10 11 11 11 11 12 11 12 12 12 12 12 12 13 13 13 14 14 14 14
5 4 4 4 4 4 3 3 3 3 3 3 4 4 4 5 6 6 7 8 8 9 10 11 11 12 12 13 13 13 13 13 13 13 13 13 13 13 13 14 14 14 13 13
3 3 3 2 3 3 3 3 4 4 4 5 5 5 6 7 7 8 8 9 9 10 11 11 12 12 13 13 14 14 14 14 14 14 14 14 14 14 14 14 14 14 13 13
2 2 2 3 4 4 4 5 5 6 6 6 6 6 7 8 9 9 10 10 11 11 11 12 13 13 13 14 14 15 15 15 16 15 15 15 15 15 15 15 14 14 13 13
3 3 3 4 5 6 6 6 7 7 8 8 8 8 9 10 11 11 11 12 12 13 13 13 14 15 15 15 15 16 16 17 17 17 17 17 16 16 16 16 15 15 14 14
4 5 6 6 7 8 8 8 9 10 10 10 10 11 11 12 12 13 14 14 15 15 15 15 16 16 17 17 17 17 17 18 18 18 18 18 18 18 18 17 17 16 15 15
7 7 8 9 10 11 10 11 12 12 13 13 13 13 14 14 15 15 16 16 17 17 17 17 18 18 18 18 19 19 19 19 19 19 19 19 19 19 19 19 18 18 17 16
9 10 11 11 12 13 13 13 14 14 15 15 16 16 17 17 18 18 19 19 19 20 20 19 20 21 21 21 21 21 20 20 20 20 21 21 21 21 20 20 20 19 19 18
12 13 14 14 15 15 14 15 16 17 17 17 18 19 20 20 20 21 21 22 22 23 23 23 23 23 24 24 24 24 23 23 23 23 23 23 23 23 23 22 22 22 21 20
15 16 16 17 17 17 17 17 18 19 19 20 21 21 22 23 24 24 24 25 25 26 26 27 27 27 27 27 27 27 26 26 26 26 26 26 26 25 25 25 24 24 23 23
17 18 19 19 20 20 20 20 21 22 23 23 23 24 25 26 26 27 27 27 28 28 29 29 30 30 30 30 30 30 30 30 29 29 28 28 28 28 28 28 27 26 26 25
19 20 21 21 22 23 23 23 24 24 25 25 26 27 28 29 29 30 30 30 31 31 32 32 33 33 33 33 33 33 33 33 33 32 32 31 31 30 30 30 30 29 28 28
22 22 23 24 25 26 26 27 27 28 29 29 30 31 31 32 33 34 34 35 35 36 36 36 36 36 36 36 37 37 37 37 36 36 36 35 34 33 33 33 33 32 31 30
25 26 27 28 29 30 30 31 31 32 33 34 35 35 36 37 38 39 39 39 40 40 41 41 41 41 41 41 40 41 41 40 39 39 39 39 38 37 36 35 35 35 34 33
29 31 31 31 32 33 33 34 35 36 37 39 40 40 41 42 42 43 43 44 44 44 45 45 45 45 45 45 45 44 44 44 43 42 41 41 40 39 38 38 37 36 36 36

GEFSCGP_500_meanwind_138.txt.gz
Wind_Speed
13 14 14 15 15 14 14 13 12 10 9 10 10 10 10 9 8 7 7 9 9 9 8 8 7 7 6 6 6 6 7 7 8 9 10 11 11 12 13 13 15 16 16 17
13 14 14 15 14 13 12 11 11 10 10 9 9 9 8 7 6 7 7 8 9 9 9 8 8 7 7 7 7 7 7 8 9 9 10 11 12 12 13 14 15 16 16 17
13 13 14 14 13 12 11 11 11 10 10 9 8 7 7 6 6 6 7 8 8 8 8 8 8 8 7 7 8 7 7 8 9 10 10 11 12 12 13 14 15 16 17 17
14 14 13 13 12 12 11 11 10 9 9 9 8 7 6 6 5 6 6 7 8 8 8 8 8 8 7 8 8 8 8 9 9 10 10 11 12 12 13 14 15 16 17 17
13 13 12 11 11 11 11 11 10 10 10 9 8 7 6 6 5 5 5 6 7 7 8 8 8 7 7 8 8 9 9 9 10 10 10 11 11 12 13 14 14 16 17 17
12 12 11 11 11 11 11 11 10 10 10 8 8 7 6 5 4 5 5 5 6 6 7 7 7 7 8 8 8 9 9 10 10 10 10 11 11 12 13 14 14 15 16 17
12 11 11 11 12 11 11 11 10 10 9 8 8 7 6 4 4 4 4 5 6 6 6 7 7 7 8 8 8 8 9 10 10 10 10 11 11 12 13 14 14 15 16 17
12 12 12 12 12 12 11 11 11 9 8 7 7 6 5 4 4 4 4 5 5 6 6 7 7 8 8 8 8 9 9 10 10 10 11 11 11 12 13 13 14 15 15 16
13 12 12 12 12 11 10 10 9 9 7 7 6 5 4 4 3 3 4 4 5 5 6 6 7 7 8 9 9 9 10 10 10 11 11 11 12 12 13 13 14 14 15 15
12 12 12 11 11 10 9 9 9 8 7 7 6 5 4 3 2 2 3 4 4 5 6 6 7 8 9 10 10 10 10 11 11 11 11 12 12 12 13 13 14 14 15 15
10 10 10 9 9 9 8 8 7 6 7 7 5 5 4 3 3 3 3 4 5 5 6 7 7 9 10 11 11 11 12 12 12 12 12 13 13 13 13 14 14 14 14 15
9 9 8 8 7 7 7 6 6 6 5 5 5 4 4 4 4 3 4 4 5 5 6 7 8 9 10 11 12 12 13 13 13 13 13 14 14 14 14 14 14 14 15 15
8 8 7 6 6 6 5 5 5 4 4 4 5 5 4 4 4 4 4 5 5 6 7 8 9 10 11 11 12 13 13 13 13 14 14 15 15 15 15 15 15 15 15 15
6 6 6 6 6 5 5 5 4 4 4 4 4 5 5 5 6 6 6 6 7 7 8 9 10 11 11 12 13 13 13 14 14 14 15 15 16 16 16 16 16 15 15 15
5 5 5 5 6 5 5 5 5 5 5 5 6 7 7 7 7 8 8 8 9 9 10 11 12 12 13 13 14 14 14 15 15 15 16 16 17 17 17 17 17 16 16 16
6 6 5 5 5 5 5 5 5 6 6 6 7 8 8 9 9 9 10 10 10 11 12 13 13 14 14 15 15 15 16 16 16 17 17 18 18 18 18 18 18 18 17 17
7 6 6 6 6 6 5 6 6 7 7 8 9 9 10 11 11 11 11 12 13 13 14 14 15 15 16 17 17 17 17 18 18 19 19 19 19 19 19 19 19 19 19 18
7 7 7 7 7 7 7 7 8 9 9 10 11 11 12 12 13 13 14 14 15 16 16 17 17 18 19 19 20 20 20 20 20 21 21 21 21 21 21 21 21 21 20 20
9 9 9 9 9 10 10 10 10 11 11 11 12 13 14 14 15 16 16 17 18 19 19 19 20 21 21 22 22 23 23 23 23 23 23 23 23 23 23 23 23 23 23 22
11 11 11 11 12 12 12 12 13 13 13 13 14 14 15 17 18 18 19 20 20 21 22 22 23 24 24 25 25 26 26 26 26 26 26 26 26 26 26 25 25 26 25 25
13 13 13 13 14 14 14 14 15 15 15 15 16 16 17 19 20 21 22 23 24 24 24 25 26 27 27 28 28 28 29 29 29 29 29 29 29 29 29 29 28 28 28 28
14 15 15 16 16 16 16 17 17 17 17 18 18 19 20 21 22 23 24 25 26 27 27 28 29 30 30 31 31 32 32 32 33 33 33 33 33 33 33 32 32 31 31 31
17 17 17 18 18 19 19 19 20 20 21 21 22 23 24 25 25 26 27 28 29 30 31 32 33 34 34 35 35 36 36 36 36 36 36 36 36 36 36 36 35 35 34 34
20 20 20 21 21 21 22 22 23 24 24 25 25 26 27 28 29 30 31 32 33 34 35 36 37 38 39 39 39 39 39 39 39 40 40 40 40 39 39 39 38 38 37 36
22 22 23 23 24 24 25 25 26 27 28 28 29 30 31 32 33 34 35 36 37 38 39 40 41 42 43 43 43 43 43 43 43 43 43 43 43 43 42 41 41 40 39 39
25 25 25 26 26 27 28 29 29 30 31 32 33 33 34 35 36 38 39 40 41 42 43 44 45 46 46 46 46 46 46 46 46 46 46 46 46 45 45 44 44 43 42 42

GEFSCGP_500_meanwind_144.txt.gz
Wind_Speed
12 12 12 12 12 12 12 11 10 9 8 6 5 6 6 6 6 7 6 6 7 7 7 6 5 5 4 4 5 5 6 7 8 8 10 11 12 13 14 14 15 17 17 18
12 12 12 11 12 12 11 11 10 9 7 6 5 4 5 5 6 6 6 6 6 6 6 5 5 5 5 5 5 6 7 7 8 9 10 11 12 13 13 14 15 16 17 18
12 11 11 11 11 12 11 10 9 10 8 7 6 5 4 4 5 5 6 6 6 5 5 5 4 4 4 5 6 7 7 8 8 9 10 11 12 13 13 14 15 16 17 18
11 12 12 12 12 11 11 10 9 9 9 8 6 5 4 3 4 5 5 6 6 5 5 5 4 4 4 5 6 6 7 8 8 9 9 11 12 12 13 14 15 16 17 18
11 11 12 12 12 11 11 11 10 10 8 7 5 5 5 3 3 3 4 5 5 5 5 5 4 4 4 5 5 6 7 7 8 9 9 11 12 13 13 14 15 15 17 17
10 10 11 12 11 12 13 12 11 9 8 8 7 5 4 2 2 3 4 4 4 4 5 5 4 3 3 4 5 6 7 7 8 9 9 11 12 13 13 14 15 15 16 17
10 10 11 12 14 15 14 12 11 9 7 8 7 4 5 4 4 4 4 4 4 4 4 4 3 3 3 4 5 6 7 8 8 9 10 11 12 13 13 14 15 15 16 16
9 10 11 12 14 14 12 10 10 9 7 7 7 5 5 5 5 4 4 4 3 4 3 3 3 3 4 5 6 7 8 9 9 10 10 11 12 13 13 14 15 15 16 16
9 8 10 11 12 12 11 8 9 9 7 5 5 5 4 4 5 4 4 4 4 3 3 3 3 4 5 6 7 8 9 9 10 10 11 12 12 13 14 14 15 15 16 16
8 7 8 10 11 11 11 13 11 10 8 7 4 4 3 4 4 4 4 4 3 3 3 3 4 5 5 6 7 8 9 10 10 11 12 12 13 14 14 14 15 15 15 16
9 7 8 10 11 12 12 11 10 8 7 6 7 5 5 4 3 3 3 4 4 4 4 4 5 6 6 7 8 9 10 11 11 12 12 13 14 14 15 15 15 16 16 15
10 8 7 7 7 9 10 11 10 8 7 7 5 6 5 5 4 4 3 3 4 4 5 5 6 6 7 8 8 9 10 11 12 12 13 13 14 14 15 15 15 16 16 16
11 10 6 5 5 7 8 9 9 8 7 7 7 6 5 6 6 5 5 5 5 5 5 6 6 7 8 8 9 10 11 11 12 13 13 14 15 15 15 15 16 16 16 16
10 9 7 6 6 7 8 9 9 9 8 7 8 7 6 6 7 6 6 6 6 6 6 7 8 8 9 10 10 11 12 13 14 14 15 15 15 16 16 16 16 16 16 17
8 7 8 7 7 7 8 9 9 10 9 9 8 8 7 7 8 8 8 8 8 8 9 9 10 10 11 12 13 13 14 14 15 15 16 16 17 17 17 17 17 17 17 17
8 8 8 7 8 8 8 8 9 10 10 10 9 10 9 8 9 10 10 10 10 11 11 11 12 13 13 14 15 16 16 16 17 17 17 17 18 19 19 19 19 19 19 19
9 8 9 8 8 8 8 8 9 9 10 11 11 11 10 11 12 12 12 12 12 13 13 14 14 15 15 16 17 17 17 18 19 20 20 21 20 21 21 21 21 21 21 21
10 10 9 9 9 10 9 9 9 10 11 11 12 12 12 13 14 14 13 13 14 15 15 16 16 17 18 19 19 20 20 20 21 22 23 23 23 23 23 23 24 24 23 23
11 11 11 11 11 12 11 11 11 11 12 12 13 13 14 14 15 15 15 15 16 17 17 18 19 20 20 21 22 22 23 23 24 24 25 25 25 25 26 26 26 26 26 26
13 14 14 13 14 14 14 13 13 14 14 14 14 15 15 16 17 16 16 17 18 19 19 20 22 22 23 24 24 25 25 26 27 28 28 27 28 28 28 29 29 29 29 29
16 16 16 16 17 18 16 15 16 17 16 16 17 17 18 18 19 19 19 20 21 21 22 23 24 25 26 27 27 28 28 29 30 31 31 31 31 32 32 32 32 32 32 32
18 18 18 18 20 20 19 19 19 18 19 19 19 19 20 21 21 22 23 24 24 25 26 26 27 28 29 30 30 31 32 33 34 34 35 35 35 35 35 35 35 34 35 35
20 20 21 22 22 22 22 22 21 21 22 22 22 22 23 23 24 25 26 27 28 28 29 30 30 31 32 33 34 35 35 36 37 38 38 38 38 38 38 38 38 37 37 37
22 21 22 23 23 24 24 24 24 24 24 24 25 25 25 26 27 28 29 30 30 31 32 33 34 35 36 37 38 39 39 40 41 41 41 41 41 41 41 41 41 41 41 41
24 23 25 26 26 25 26 26 26 26 26 26 27 27 28 29 30 31 32 33 33 34 35 36 38 39 40 41 41 43 43 44 44 44 44 44 44 44 44 44 44 44 44 44
26 26 27 28 27 28 28 28 28 28 29 29 29 30 30 32 33 34 35 35 36 37 38 39 41 42 43 44 45 46 47 48 47 47 47 47 47 46 47 47 47 47 47 47

GEFSCGP_500_meanwind_150.txt.gz
Wind_Speed
12 12 12 12 12 13 13 13 12 11 13 12 12 11 11 10 10 10 9 9 9 9 10 9 9 7 5 4 3 2 1 2 2 3 4 5 7 8 9 10 11 12 13 14
12 13 13 13 13 13 13 13 12 12 13 12 12 11 11 11 11 10 10 10 9 9 9 9 9 8 6 5 3 2 2 2 3 4 5 6 7 8 9 10 11 12 13 14
13 13 13 13 13 12 12 12 13 12 12 12 11 11 11 11 11 11 11 10 10 9 9 9 8 7 6 5 3 3 2 2 3 4 5 6 7 8 9 10 11 12 13 14
13 13 12 12 13 13 13 13 12 12 12 11 11 11 11 11 10 10 11 11 10 9 8 8 7 6 5 4 3 2 2 3 4 4 5 6 7 8 9 10 11 12 12 13
13 12 12 12 12 13 13 14 13 12 12 11 11 10 10 10 10 10 11 11 10 9 8 7 6 5 5 4 3 2 2 3 4 4 5 6 7 8 9 10 11 11 12 13
12 12 12 11 12 13 13 14 15 14 12 11 10 10 10 9 9 9 10 10 9 9 8 7 6 5 5 4 3 3 3 4 4 5 6 6 7 8 9 10 10 11 12 13
12 12 11 12 13 13 13 13 14 14 12 10 10 9 9 9 9 9 9 9 9 9 8 8 6 5 5 4 4 3 4 4 5 6 6 7 7 8 9 10 10 11 12 12
12 12 12 13 12 13 13 12 12 11 11 10 9 9 9 9 8 8 8 8 8 8 8 7 6 6 5 4 4 4 4 5 5 6 7 7 8 9 9 10 10 11 12 12
12 13 13 13 13 13 13 13 12 10 10 9 8 9 10 9 8 8 7 7 7 6 6 6 6 5 5 4 4 4 5 5 6 6 7 7 8 9 9 10 10 11 12 12
13 13 13 14 13 12 12 12 12 11 10 9 9 9 8 7 6 6 6 6 6 5 6 5 5 5 5 5 5 5 5 5 6 6 7 8 8 9 10 10 11 11 12 12
12 12 12 12 12 12 11 11 11 11 9 8 7 8 8 7 6 5 5 5 5 5 6 5 5 5 5 5 5 5 6 6 6 7 8 9 10 10 10 11 11 12 12 12
10 11 11 11 12 11 11 10 9 9 8 7 7 7 6 6 5 5 5 4 4 5 5 5 5 6 6 5 5 6 6 7 7 8 9 9 10 10 10 11 12 12 13 13
9 10 10 10 11 11 11 9 9 8 7 6 6 7 6 6 5 4 4 4 4 5 6 6 6 6 6 6 7 7 7 7 8 8 9 10 10 11 11 12 12 13 13 14
9 10 9 10 10 10 10 10 9 8 7 6 5 5 6 5 4 4 5 5 5 6 6 7 8 7 8 8 8 8 8 8 9 9 10 11 12 12 13 13 14 14 15 15
10 10 10 10 11 11 10 10 10 8 7 6 6 5 6 5 5 5 5 5 6 7 8 9 9 9 9 10 10 10 10 11 11 12 13 13 14 14 15 15 15 16 16 16
11 10 10 10 10 10 10 10 9 9 9 8 8 7 7 6 6 6 6 6 7 8 9 9 10 10 11 12 12 12 13 13 14 15 15 15 15 16 16 17 17 17 17 18
12 11 11 11 11 11 10 10 10 10 10 10 9 8 7 7 7 7 8 8 9 10 10 11 12 12 13 14 14 15 15 16 17 17 18 18 18 18 18 19 20 20 20 20
13 13 13 13 12 12 11 11 11 11 11 10 9 9 8 8 9 9 9 10 10 11 12 13 14 14 15 16 16 17 18 19 19 20 20 21 21 21 21 22 22 23 23 24
14 14 14 14 15 14 13 13 12 12 11 11 10 10 10 10 11 11 11 12 12 13 14 15 16 17 17 18 19 20 20 21 22 22 23 23 24 24 24 25 26 26 26 27
16 16 16 16 16 15 13 13 13 13 12 12 12 12 12 12 13 13 14 14 15 16 17 17 18 19 20 21 21 22 23 23 24 25 25 26 27 27 28 28 29 29 29 30
18 18 17 16 16 15 14 14 14 13 12 13 14 14 14 15 15 15 16 17 18 19 19 20 21 22 23 23 24 25 26 26 27 28 29 29 30 31 31 32 32 32 32 33
19 19 19 18 18 16 15 15 15 14 15 15 15 16 17 17 18 18 19 20 21 22 22 23 24 25 26 26 27 28 29 30 30 31 32 33 34 34 34 35 35 35 36 35
20 20 20 20 19 17 17 17 17 17 17 17 18 18 19 20 21 21 22 23 24 25 26 26 27 28 28 29 30 31 32 33 33 34 35 36 37 37 38 38 38 38 39 39
21 21 21 21 20 19 19 19 20 20 20 20 21 21 22 23 24 25 25 26 27 28 28 29 30 30 31 32 33 34 35 36 36 38 39 39 40 40 41 41 41 42 42 42
22 22 22 22 21 20 21 21 22 22 23 23 24 24 25 26 27 27 28 28 29 30 31 32 33 33 34 35 36 37 38 39 40 41 42 43 43 43 43 44 45 45 45 45
23 23 23 23 23 23 23 24 24 25 25 26 26 27 27 28 29 30 31 32 32 33 33 35 36 36 37 38 39 40 41 42 43 44 45 45 45 45 46 46 47 47 47 47

GEFSCGP_500_meanwind_156.txt.gz
Wind_Speed
11 11 11 11 11 10 11 11 13 12 12 12 12 12 13 13 13 12 12 12 11 11 10 11 10 8 7 6 4 4 4 3 2 3 4 5 6 7 8 9 10 11 11 12
10 10 10 10 10 10 10 11 12 12 12 12 12 12 13 13 13 13 12 12 12 11 11 11 10 8 7 6 5 4 3 3 3 3 4 5 6 7 8 9 10 11 11 12
10 10 10 10 10 11 10 11 11 11 11 12 12 12 13 13 12 12 12 12 12 12 11 11 10 9 7 6 5 4 4 4 4 4 4 5 6 7 8 9 10 11 11 12
8 9 9 9 10 10 10 10 11 11 12 12 12 11 13 13 13 12 12 13 12 12 12 11 11 9 8 6 5 4 4 3 3 4 4 5 6 8 9 9 10 11 12 12
8 9 9 9 10 10 10 10 11 11 11 11 11 12 12 12 12 12 12 13 12 12 12 11 10 9 7 6 5 5 4 4 4 4 5 6 7 8 9 10 10 11 12 12
8 8 8 9 10 10 10 11 11 11 11 10 10 11 12 11 11 11 11 12 12 12 11 10 9 8 7 6 6 5 4 4 5 5 5 6 7 8 9 10 10 11 12 12
8 8 9 9 10 11 11 11 11 10 10 9 9 10 11 11 10 11 11 11 11 11 11 9 8 7 6 6 6 5 4 4 5 5 6 6 7 8 9 9 10 10 11 12
8 8 8 8 9 11 11 11 10 8 8 9 9 10 10 11 11 10 10 11 11 11 10 9 8 7 6 6 6 5 5 4 5 5 6 6 7 8 9 9 10 10 10 11
8 8 8 7 8 11 11 12 11 9 10 10 10 10 10 10 10 10 10 11 11 11 10 9 8 7 7 6 6 5 5 5 5 6 6 7 8 8 9 10 10 10 10 11
8 8 8 8 9 10 11 11 12 10 9 9 9 9 9 9 9 9 10 10 10 10 10 9 8 7 7 6 6 5 5 6 6 6 6 7 8 9 9 10 10 10 11 11
8 8 8 8 9 10 11 11 10 9 8 7 7 8 9 9 9 9 9 9 9 10 9 8 8 7 6 6 6 6 6 6 6 7 7 8 8 9 10 10 10 10 11 11
8 8 8 8 9 10 10 10 9 9 8 7 7 8 9 9 9 9 9 9 9 8 8 8 8 7 7 7 7 7 7 7 7 7 8 9 9 10 10 11 11 11 11 12
8 8 8 8 9 10 9 9 9 10 9 8 7 7 9 9 9 9 8 8 8 8 8 7 7 7 7 7 7 7 7 8 8 8 9 10 10 11 11 12 13 13 13 14
10 9 9 9 9 9 9 8 8 9 9 8 8 7 9 9 8 9 8 8 8 8 8 8 7 7 7 7 7 8 9 9 9 10 11 11 12 13 13 14 14 15 15 15
10 10 10 10 10 11 10 10 9 9 9 9 9 9 9 9 10 10 10 9 9 9 8 8 8 8 8 8 9 9 10 11 11 12 12 13 14 14 15 15 16 16 17 17
11 11 11 11 11 11 11 11 10 10 10 10 10 10 10 10 10 10 10 10 10 9 9 9 9 9 9 10 10 11 12 13 13 14 14 15 16 16 17 18 18 19 19 20
13 13 13 13 12 12 11 11 11 11 11 11 10 10 12 12 11 11 11 11 11 11 11 11 11 11 12 12 12 13 14 15 16 16 17 18 18 19 20 20 21 21 22 22
15 14 14 14 14 13 11 12 12 12 12 11 11 11 12 12 12 11 11 12 11 11 12 12 13 13 14 14 15 16 17 18 18 19 20 20 21 21 22 23 24 24 25 25
16 16 15 15 15 14 13 13 13 13 12 12 12 12 12 12 12 12 12 12 12 13 13 14 14 15 16 16 17 18 19 20 21 21 22 22 23 23 24 25 26 27 27 28
18 18 17 16 16 15 14 14 14 14 14 14 14 14 14 14 13 13 13 14 14 14 15 15 16 16 17 18 19 20 22 22 23 24 24 25 26 26 27 28 29 30 30 31
18 19 19 18 18 16 15 15 15 15 14 15 16 16 16 15 15 15 15 16 16 17 17 18 18 19 19 20 21 23 24 24 25 26 27 28 29 30 31 31 32 32 33 33
19 19 18 18 18 16 17 17 16 16 16 17 17 17 18 17 17 17 17 18 18 18 19 20 20 21 22 23 24 25 26 26 27 28 30 31 32 33 33 34 34 35 35 35
21 20 19 19 18 17 18 18 18 18 18 18 18 18 19 19 19 19 20 21 21 21 22 22 23 24 25 26 27 28 28 29 30 31 32 33 34 34 35 36 36 37 37 38
23 22 22 21 19 20 20 20 20 21 21 20 20 20 20 21 21 22 22 22 23 24 25 26 26 27 28 29 30 30 31 32 32 33 34 35 35 36 37 38 38 39 40 40
23 23 23 22 22 22 22 22 22 22 22 23 23 23 23 23 23 24 25 25 26 27 28 29 29 30 31 32 33 33 33 34 35 36 37 37 38 39 39 40 41 42 43 44
24 24 24 24 24 25 24 24 24 24 24 25 25 25 25 25 26 27 28 28 29 30 30 31 31 32 33 34 34 35 35 36 37 38 39 39 40 41 42 43 44 45 45 46